Zurück zum Katalog

DELTA 1 DEB

AktivSSO
NORAD 40765·DEBRIS·🇺🇸 United States

Gestartet Jul 29, 1976 von Vandenberg Space Force Base

Loading…

Nächste Überflüge (nächste 24 Stunden)

TLE

AlterndSource: Space-Track

Epoche: Sep 8, 2026, 10:51 UTC

1 40765U 76077GJ  26251.45271183  .00000015  00000-0  42642-3 0  9993
2 40765 102.1704 253.7016 0026454 266.6859  93.1181 12.45460751581659

Verfolge DELTA 1 DEB in Echtzeit mit AllMySat

Download on the App Store